Weather History for KOXB - September, 2013

Change the Weather History Date:

Friday, September 13, 2013

  Actual Average (KSBY) Record (KSBY)
Temperature  
Mean Temperature 70 °F 69 °F  
Max Temperature 79 °F 79 °F 96 °F (1915)
Min Temperature 61 °F 59 °F 43 °F (1958)
Degree Days  
Heating Degree Days 0 1  
Month to date heating degree days 5  
Since 1 July heating degree days 7  
Cooling Degree Days 4 5  
Month to date cooling degree days 86  
Year to date cooling degree days 1069  
Growing Degree Days 20 (Base 50)    
Moisture  
Dew Point 63 °F    
Average Humidity 77    
Maximum Humidity 97    
Minimum Humidity 46    
Precipitation  
Precipitation 0.00 in 0.15 in 1.75 in (1950)
Month to date precipitation 1.68  
Year to date precipitation 32.75  
Snow  
Snow 0.00 in 0.00 in 0.00 in (2002)
Month to date snowfall 0.0  
Since 1 July snowfall 0.0  
Snow Depth -    
Sea Level Pressure  
Sea Level Pressure 29.74 in    
Wind  
Wind Speed 6 mph (NW)    
Max Wind Speed 13 mph    
Max Gust Speed 21 mph    
Visibility 8 miles    
Events      
T = Trace of Precipitation, MM = Missing Value Source: NWS Daily Summary

Daily Weather History Graph

Daily Weather History Graph

Search for Another Location

Airport or City:

Trip Planner

Search our weather history database for the weather conditions in past years. The results will help you decide how hot, cold, wet, or windy it might be!

Date:

Astronomy

Sep. 13, 2013 Rise Set
Actual Time 6:40 AM EDT 7:11 PM EDT
Civil Twilight 6:14 AM EDT 7:37 PM EDT
Nautical Twilight 5:42 AM EDT 8:09 PM EDT
Astronomical Twilight 5:10 AM EDT 8:41 PM EDT
Moon 2:55 PM EDT (9/13) 12:11 AM EDT (9/13)
Length of Visible Light 13h 23m
Length of Day
12h 30m
First Quarter, 61% of the Moon is Illuminated
Sep 13
First Quarter
Sep 19
Full
Sep 26
Last Quarter
Oct 4
New
Oct 11
First Quarter

Hourly Weather History & Observations

Time (EDT) Temp. Dew Point Humidity Pressure Visibility Wind Dir Wind Speed Gust Speed Precip Events Conditions
12:53 AM 70.0 °F 69.1 °F 97% 29.73 in 8.0 mi West 4.6 mph - 0.00 in   Partly Cloudy
1:53 AM 69.1 °F 68.0 °F 96% 29.71 in 7.0 mi West 4.6 mph - N/A   Clear
2:53 AM 69.1 °F 68.0 °F 96% 29.69 in 7.0 mi West 5.8 mph - N/A   Scattered Clouds
3:53 AM 70.0 °F 69.1 °F 97% 29.68 in 5.0 mi West 5.8 mph - N/A   Clear
4:53 AM 71.1 °F 70.0 °F 96% 29.68 in 5.0 mi West 5.8 mph - N/A   Clear
5:53 AM 71.1 °F 69.1 °F 93% 29.68 in 6.0 mi WNW 4.6 mph - N/A   Partly Cloudy
6:53 AM 71.1 °F 69.1 °F 93% 29.70 in 6.0 mi WNW 4.6 mph - N/A   Overcast
7:53 AM 71.1 °F 69.1 °F 93% 29.71 in 4.0 mi NW 5.8 mph - N/A   Mostly Cloudy
8:53 AM 72.0 °F 69.1 °F 91% 29.71 in 6.0 mi NW 5.8 mph - N/A   Mostly Cloudy
9:53 AM 73.9 °F 66.9 °F 79% 29.72 in 10.0 mi NW 10.4 mph - N/A   Partly Cloudy
10:53 AM 77.0 °F 66.0 °F 69% 29.73 in 10.0 mi WNW 9.2 mph - N/A   Clear
11:53 AM 75.9 °F 64.0 °F 67% 29.74 in 10.0 mi North 11.5 mph - N/A   Clear
12:53 PM 78.1 °F 60.1 °F 54% 29.74 in 10.0 mi NNW 9.2 mph - N/A   Clear
1:53 PM 78.1 °F 57.0 °F 48% 29.73 in 10.0 mi NNW 11.5 mph 19.6 mph N/A   Clear
2:53 PM 78.1 °F 55.9 °F 46% 29.73 in 10.0 mi NW 12.7 mph 20.7 mph N/A   Partly Cloudy
3:53 PM 75.0 °F 57.9 °F 55% 29.73 in 10.0 mi NW 6.9 mph - N/A   Mostly Cloudy
4:53 PM 75.9 °F 55.9 °F 50% 29.74 in 10.0 mi NW 9.2 mph - N/A   Overcast
5:53 PM 75.9 °F 55.9 °F 50% 29.75 in 10.0 mi NNW 5.8 mph - N/A   Scattered Clouds
6:53 PM 71.1 °F 57.9 °F 63% 29.77 in 10.0 mi Calm Calm - N/A   Clear
7:53 PM 63.0 °F 57.9 °F 84% 29.80 in 10.0 mi NNW 3.5 mph - N/A   Clear
8:53 PM 61.0 °F 57.9 °F 90% 29.83 in 10.0 mi Calm Calm - N/A   Clear
9:53 PM 61.0 °F 57.9 °F 90% 29.84 in 10.0 mi Calm Calm - N/A   Mostly Cloudy
10:53 PM 64.0 °F 57.0 °F 78% 29.86 in 10.0 mi NNW 4.6 mph - N/A   Overcast
11:53 PM 63.0 °F 55.0 °F 75% 29.87 in 10.0 mi NNW 4.6 mph - N/A   Scattered Clouds